EN

Hourly Weather Trudovyk

Today, 14 April, Wednesday

Time Temperature Precipitation Wind Pressure Humidity
00:00 +10°C° 0 mm 2 mps 757 mmHg 77%
01:00 +10°C° 0 mm 2 mps 757 mmHg 78%
02:00 +10°C° 0 mm 2 mps 757 mmHg 79%
03:00 +10°C° 0 mm 2 mps 757 mmHg 80%
04:00 +10°C° 0 mm 2 mps 757 mmHg 82%
05:00 +9°C° 0 mm 2 mps 757 mmHg 83%
06:00 +10°C° 0 mm 2 mps 757 mmHg 81%
07:00 +10°C° 0 mm 2 mps 757 mmHg 78%
08:00 +12°C° 0 mm 2 mps 757 mmHg 76%
09:00 +13°C° 0 mm 2 mps 756 mmHg 70%
10:00 +13°C° 0 mm 3 mps 756 mmHg 64%
11:00 +14°C° 0 mm 3 mps 755 mmHg 58%
12:00 +14°C° 0 mm 3 mps 755 mmHg 58%
13:00 +14°C° 0 mm 3 mps 755 mmHg 59%
14:00 +14°C° 0 mm 3 mps 755 mmHg 59%
15:00 +13°C° 0 mm 3 mps 754 mmHg 60%
16:00 +14°C° 0 mm 2 mps 754 mmHg 61%
17:00 +14°C° 0 mm 2 mps 754 mmHg 62%
18:00 +13°C° 0 mm 2 mps 754 mmHg 65%
19:00 +13°C° 0 mm 2 mps 754 mmHg 67%
20:00 +12°C° 0 mm 1 mps 754 mmHg 69%
21:00 +12°C° 0 mm 2 mps 754 mmHg 70%
22:00 +10°C° 0 mm 2 mps 754 mmHg 72%
23:00 +10°C° 0 mm 2 mps 753 mmHg 73%

Tomorrow, 15 April, Thursday

Time Temperature Precipitation Wind Pressure Humidity
00:00 +9°C° 0 mm 2 mps 753 mmHg 75%
01:00 +9°C° 0 mm 2 mps 753 mmHg 76%
02:00 +8°C° 0 mm 2 mps 753 mmHg 78%
03:00 +8°C° 0 mm 2 mps 753 mmHg 79%
04:00 +7°C° 0 mm 2 mps 753 mmHg 79%
05:00 +7°C° 0 mm 2 mps 753 mmHg 80%
06:00 +8°C° 0 mm 3 mps 753 mmHg 77%
07:00 +9°C° 0 mm 3 mps 753 mmHg 75%
08:00 +10°C° 0 mm 3 mps 753 mmHg 72%
09:00 +10°C° 0.1 mm 3 mps 753 mmHg 74%
10:00 +10°C° 0.1 mm 4 mps 753 mmHg 76%
11:00 +11°C° 0.1 mm 4 mps 752 mmHg 78%
12:00 +11°C° 0.1 mm 3 mps 752 mmHg 77%
13:00 +11°C° 0.1 mm 3 mps 752 mmHg 77%
14:00 +11°C° 0.1 mm 3 mps 752 mmHg 76%
15:00 +12°C° 0.4 mm 3 mps 752 mmHg 74%
16:00 +13°C° 0.4 mm 2 mps 752 mmHg 73%
17:00 +13°C° 0.4 mm 2 mps 751 mmHg 71%
18:00 +12°C° 0.5 mm 2 mps 752 mmHg 74%
19:00 +11°C° 0.5 mm 3 mps 752 mmHg 77%
20:00 +10°C° 0.5 mm 3 mps 752 mmHg 80%
21:00 +10°C° 0.5 mm 3 mps 752 mmHg 82%
22:00 +9°C° 0.5 mm 3 mps 752 mmHg 84%
23:00 +9°C° 0.5 mm 2 mps 751 mmHg 85%

Day after tomorrow, 16 April, Friday

Time Temperature Precipitation Wind Pressure Humidity
00:00 +8°C° 0.3 mm 3 mps 752 mmHg 86%
01:00 +8°C° 0.3 mm 3 mps 752 mmHg 88%
02:00 +7°C° 0.3 mm 3 mps 752 mmHg 89%
03:00 +7°C° 0.1 mm 3 mps 752 mmHg 90%
04:00 +5°C° 0.1 mm 3 mps 752 mmHg 91%
05:00 +4°C° 0.1 mm 3 mps 752 mmHg 92%
06:00 +5°C° 0 mm 3 mps 752 mmHg 89%
07:00 +6°C° 0 mm 4 mps 753 mmHg 85%
08:00 +7°C° 0 mm 4 mps 753 mmHg 82%
09:00 +7°C° 0.1 mm 4 mps 753 mmHg 84%
10:00 +7°C° 0.1 mm 4 mps 753 mmHg 86%
11:00 +7°C° 0.1 mm 4 mps 753 mmHg 89%
12:00 +7°C° 0.1 mm 4 mps 754 mmHg 86%
13:00 +8°C° 0.1 mm 5 mps 754 mmHg 83%
14:00 +8°C° 0.1 mm 5 mps 754 mmHg 80%
15:00 +8°C° 0 mm 4 mps 754 mmHg 81%
16:00 +9°C° 0 mm 3 mps 754 mmHg 81%
17:00 +8°C° 0 mm 3 mps 755 mmHg 82%
18:00 +8°C° 0 mm 2 mps 755 mmHg 84%
19:00 +7°C° 0 mm 2 mps 755 mmHg 85%
20:00 +7°C° 0 mm 2 mps 755 mmHg 87%
21:00 +7°C° 0 mm 2 mps 756 mmHg 87%
22:00 +6°C° 0 mm 2 mps 756 mmHg 88%
23:00 +6°C° 0 mm 2 mps 756 mmHg 89%

17 April, Saturday

Time Temperature Precipitation Wind Pressure Humidity
00:00 +6°C° 0 mm 2 mps 756 mmHg 90%
01:00 +5°C° 0 mm 2 mps 756 mmHg 91%
02:00 +5°C° 0 mm 2 mps 757 mmHg 92%
03:00 +4°C° 0 mm 2 mps 757 mmHg 92%
04:00 +5°C° 0 mm 1 mps 757 mmHg 93%
05:00 +5°C° 0 mm 1 mps 757 mmHg 93%
06:00 +6°C° 0 mm 1 mps 757 mmHg 87%
07:00 +7°C° 0 mm 1 mps 758 mmHg 82%
08:00 +8°C° 0 mm 1 mps 758 mmHg 76%
09:00 +9°C° 0 mm 1 mps 758 mmHg 71%
10:00 +10°C° 0 mm 1 mps 758 mmHg 66%
11:00 +11°C° 0 mm 1 mps 758 mmHg 60%
12:00 +12°C° 0 mm 2 mps 758 mmHg 58%
13:00 +12°C° 0 mm 2 mps 758 mmHg 57%
14:00 +12°C° 0 mm 3 mps 758 mmHg 55%
15:00 +12°C° 0 mm 3 mps 758 mmHg 57%
16:00 +11°C° 0 mm 3 mps 758 mmHg 59%
17:00 +11°C° 0 mm 3 mps 758 mmHg 60%
18:00 +10°C° 0 mm 3 mps 758 mmHg 67%
19:00 +9°C° 0 mm 3 mps 758 mmHg 73%
20:00 +8°C° 0 mm 3 mps 758 mmHg 79%
21:00 +8°C° 0 mm 3 mps 758 mmHg 80%
22:00 +7°C° 0 mm 4 mps 758 mmHg 82%
23:00 +7°C° 0 mm 4 mps 758 mmHg 83%

18 April, Sunday

Time Temperature Precipitation Wind Pressure Humidity
00:00 +6°C° 0 mm 4 mps 757 mmHg 85%
01:00 +6°C° 0 mm 4 mps 757 mmHg 86%
02:00 +7°C° 0 mm 3 mps 757 mmHg 88%
03:00 +7°C° 0.1 mm 3 mps 757 mmHg 87%
04:00 +7°C° 0.1 mm 3 mps 757 mmHg 87%
05:00 +7°C° 0.1 mm 3 mps 757 mmHg 86%
06:00 +7°C° 0.1 mm 3 mps 757 mmHg 86%
07:00 +7°C° 0.1 mm 2 mps 758 mmHg 85%
08:00 +8°C° 0.1 mm 2 mps 758 mmHg 85%
09:00 +8°C° 0 mm 2 mps 758 mmHg 82%
10:00 +9°C° 0 mm 2 mps 759 mmHg 79%
11:00 +10°C° 0 mm 2 mps 759 mmHg 76%
12:00 +10°C° 0 mm 2 mps 759 mmHg 75%
13:00 +12°C° 0 mm 2 mps 759 mmHg 73%
14:00 +12°C° 0 mm 2 mps 759 mmHg 71%
15:00 +12°C° 0 mm 2 mps 759 mmHg 72%
16:00 +11°C° 0 mm 3 mps 760 mmHg 72%
17:00 +11°C° 0 mm 3 mps 760 mmHg 73%
18:00 +10°C° 0 mm 3 mps 760 mmHg 76%
19:00 +9°C° 0 mm 3 mps 760 mmHg 78%
20:00 +9°C° 0 mm 2 mps 760 mmHg 81%
21:00 +8°C° 0 mm 2 mps 760 mmHg 82%
22:00 +8°C° 0 mm 2 mps 761 mmHg 83%
23:00 +7°C° 0 mm 2 mps 761 mmHg 84%

19 April, Monday

Time Temperature Precipitation Wind Pressure Humidity
00:00 +7°C° 0 mm 2 mps 761 mmHg 84%
01:00 +6°C° 0 mm 2 mps 761 mmHg 83%
02:00 +6°C° 0 mm 2 mps 761 mmHg 83%
03:00 +6°C° 0 mm 2 mps 761 mmHg 85%
04:00 +6°C° 0 mm 2 mps 761 mmHg 86%
05:00 +5°C° 0 mm 2 mps 761 mmHg 88%
06:00 +7°C° 0 mm 3 mps 761 mmHg 83%
07:00 +8°C° 0 mm 4 mps 761 mmHg 79%
08:00 +10°C° 0 mm 5 mps 762 mmHg 74%
09:00 +12°C° 0 mm 5 mps 761 mmHg 67%
10:00 +13°C° 0 mm 5 mps 761 mmHg 60%
11:00 +15°C° 0 mm 6 mps 761 mmHg 53%
12:00 +15°C° 0 mm 6 mps 761 mmHg 51%
13:00 +16°C° 0 mm 6 mps 761 mmHg 48%
14:00 +16°C° 0 mm 6 mps 761 mmHg 45%
15:00 +15°C° 0 mm 7 mps 760 mmHg 50%
16:00 +14°C° 0 mm 7 mps 760 mmHg 55%
17:00 +12°C° 0 mm 7 mps 760 mmHg 59%
18:00 +12°C° 0 mm 7 mps 760 mmHg 62%
19:00 +11°C° 0 mm 6 mps 760 mmHg 64%
20:00 +10°C° 0 mm 6 mps 760 mmHg 66%
21:00 +10°C° 0 mm 7 mps 759 mmHg 69%
22:00 +9°C° 0 mm 8 mps 759 mmHg 71%
23:00 +9°C° 0 mm 8 mps 759 mmHg 74%
Show more

We Need Your Consent

Meteoprog and our Service Providers may store and access personal data such as cookies, device identifiers or other similar technologies on your device and process such data to personalise content and ads, as well as provide social media features and to analyse the traffic.

  • Store and/or access information on your device

    Cookies, device identifiers or other information can be stored or accessed on your device for the purposes indicated above.

  • Personalised ads and content, ad and content measurement, audience insights, and products development

    Ads and content can be personalised based on a profile. More data can be added to better personalise ads and content. Ad and content performance can be measured. Insights about the audience who saw the ads and content can be derived. Such data can be used to develop or improve user’s experience, systems and software.

By clicking ‘I Agree’ you will allow the use of indicated cookies, device identifiers, web beacons or other similar technologies. Your settings can be changed in the browser on your device.

For certain purposes, legitimate interests may be relied on, rather than consent. You can read more about this in our Privacy and Cookie Policy.